Time,TemperatureF,DewpointF,PressureIn,WindDirection,WindDirectionDegrees,WindSpeedMPH,WindSpeedGustMPH,Humidity,HourlyPrecipIn,Conditions,Clouds,dailyrainin,SoftwareType,DateUTC
2013-04-01 00:00:00,44.7,44.0,29.65,West,278,0.0,0.0,97,0.00,,,0.06,oem by Ross Wheeler,2013-04-01 04:00:00,
2013-04-01 00:10:00,44.7,44.0,29.65,West,278,0.0,0.0,97,0.00,,,0.00,oem by Ross Wheeler,2013-04-01 04:10:00,
2013-04-01 00:15:00,44.9,44.0,29.65,West,278,0.0,0.0,97,0.00,,,0.00,oem by Ross Wheeler,2013-04-01 04:15:00,
2013-04-01 00:25:00,44.9,44.0,29.65,West,278,2.0,0.0,97,0.00,,,0.00,oem by Ross Wheeler,2013-04-01 04:25:00,
2013-04-01 00:30:00,44.9,44.0,29.66,WNW,287,2.0,0.0,97,0.00,,,0.00,oem by Ross Wheeler,2013-04-01 04:30:00,
2013-04-01 00:40:00,44.9,44.0,29.66,WNW,287,3.0,0.0,97,0.00,,,0.00,oem by Ross Wheeler,2013-04-01 04:40:00,
2013-04-01 00:45:00,44.9,44.0,29.65,WNW,288,5.0,0.0,97,0.00,,,0.00,oem by Ross Wheeler,2013-04-01 04:45:00,
2013-04-01 00:55:00,44.9,44.0,29.65,WNW,288,1.0,0.0,97,0.00,,,0.00,oem by Ross Wheeler,2013-04-01 04:55:00,
2013-04-01 01:00:00,44.9,44.0,29.65,WSW,247,3.0,0.0,97,0.00,,,0.00,oem by Ross Wheeler,2013-04-01 05:00:00,
2013-04-01 01:10:00,45.0,44.0,29.65,West,260,0.0,0.0,97,0.00,,,0.00,oem by Ross Wheeler,2013-04-01 05:10:00,
2013-04-01 01:15:00,45.0,44.0,29.66,WNW,284,2.0,0.0,97,0.00,,,0.00,oem by Ross Wheeler,2013-04-01 05:15:00,
2013-04-01 01:25:00,45.0,44.0,29.66,WSW,253,0.0,0.0,97,0.00,,,0.00,oem by Ross Wheeler,2013-04-01 05:25:00,
2013-04-01 01:30:00,45.0,44.0,29.66,West,260,2.0,0.0,97,0.00,,,0.00,oem by Ross Wheeler,2013-04-01 05:30:00,
2013-04-01 01:40:00,45.3,45.0,29.66,West,267,6.0,0.0,97,0.00,,,0.00,oem by Ross Wheeler,2013-04-01 05:40:00,
2013-04-01 01:45:00,45.3,45.0,29.66,SW,220,5.0,0.0,97,0.00,,,0.00,oem by Ross Wheeler,2013-04-01 05:45:00,
2013-04-01 01:55:00,45.3,45.0,29.66,SW,234,2.0,0.0,97,0.00,,,0.00,oem by Ross Wheeler,2013-04-01 05:55:00,
2013-04-01 02:00:00,45.3,45.0,29.66,SSW,207,4.0,0.0,97,0.00,,,0.00,oem by Ross Wheeler,2013-04-01 06:00:00,
2013-04-01 02:10:00,45.3,45.0,29.66,WSW,254,3.0,0.0,97,0.00,,,0.00,oem by Ross Wheeler,2013-04-01 06:10:00,
2013-04-01 02:15:00,45.3,45.0,29.67,West,278,4.0,0.0,97,0.00,,,0.00,oem by Ross Wheeler,2013-04-01 06:15:00,
2013-04-01 02:25:00,45.3,45.0,29.67,West,270,1.0,0.0,97,0.00,,,0.00,oem by Ross Wheeler,2013-04-01 06:25:00,
2013-04-01 02:30:00,45.3,45.0,29.68,SSW,195,5.0,0.0,97,0.00,,,0.00,oem by Ross Wheeler,2013-04-01 06:30:00,
2013-04-01 02:40:00,45.3,44.0,29.68,West,270,0.0,0.0,96,0.00,,,0.00,oem by Ross Wheeler,2013-04-01 06:40:00,
2013-04-01 02:45:00,45.3,44.0,29.68,WSW,244,2.0,0.0,96,0.00,,,0.00,oem by Ross Wheeler,2013-04-01 06:45:00,
2013-04-01 02:55:00,45.3,44.0,29.68,West,264,7.0,0.0,96,0.00,,,0.00,oem by Ross Wheeler,2013-04-01 06:55:00,
2013-04-01 03:00:00,45.3,44.0,29.67,SW,230,5.0,0.0,96,0.00,,,0.00,oem by Ross Wheeler,2013-04-01 07:00:00,
2013-04-01 03:10:00,45.2,44.0,29.67,WNW,287,3.0,0.0,96,0.00,,,0.00,oem by Ross Wheeler,2013-04-01 07:10:00,
2013-04-01 03:15:00,45.0,44.0,29.67,WNW,285,3.0,0.0,96,0.00,,,0.00,oem by Ross Wheeler,2013-04-01 07:15:00,
2013-04-01 03:25:00,44.9,44.0,29.67,West,271,4.0,0.0,96,0.00,,,0.00,oem by Ross Wheeler,2013-04-01 07:25:00,
2013-04-01 03:30:00,44.9,44.0,29.68,West,272,3.0,0.0,95,0.00,,,0.00,oem by Ross Wheeler,2013-04-01 07:30:00,
2013-04-01 03:40:00,45.0,44.0,29.68,West,264,5.0,0.0,95,0.00,,,0.00,oem by Ross Wheeler,2013-04-01 07:40:00,
2013-04-01 03:45:00,45.0,44.0,29.67,SW,222,2.0,0.0,95,0.00,,,0.00,oem by Ross Wheeler,2013-04-01 07:45:00,
2013-04-01 03:55:00,44.9,43.0,29.67,SSW,213,2.0,0.0,94,0.00,,,0.00,oem by Ross Wheeler,2013-04-01 07:55:00,
2013-04-01 04:00:00,44.7,43.0,29.67,WSW,258,3.0,0.0,94,0.00,,,0.00,oem by Ross Wheeler,2013-04-01 08:00:00,
2013-04-01 04:10:00,44.6,43.0,29.67,SW,224,1.0,0.0,94,0.00,,,0.00,oem by Ross Wheeler,2013-04-01 08:10:00,
2013-04-01 04:15:00,44.4,43.0,29.67,SW,227,2.0,0.0,94,0.00,,,0.00,oem by Ross Wheeler,2013-04-01 08:15:00,
2013-04-01 04:25:00,44.4,43.0,29.67,SW,217,2.0,0.0,94,0.00,,,0.00,oem by Ross Wheeler,2013-04-01 08:25:00,
2013-04-01 04:30:00,44.4,43.0,29.68,West,261,0.0,0.0,94,0.00,,,0.00,oem by Ross Wheeler,2013-04-01 08:30:00,
2013-04-01 04:40:00,44.4,43.0,29.68,SSW,210,5.0,0.0,94,0.00,,,0.00,oem by Ross Wheeler,2013-04-01 08:40:00,
2013-04-01 04:45:00,44.3,43.0,29.68,SW,215,1.0,0.0,94,0.00,,,0.00,oem by Ross Wheeler,2013-04-01 08:45:00,
2013-04-01 04:55:00,44.1,43.0,29.68,SW,216,1.0,0.0,95,0.00,,,0.00,oem by Ross Wheeler,2013-04-01 08:55:00,
2013-04-01 05:00:00,44.0,43.0,29.68,SSW,203,0.0,0.0,95,0.00,,,0.00,oem by Ross Wheeler,2013-04-01 09:00:00,
2013-04-01 05:10:00,43.7,42.0,29.68,SSW,213,1.0,0.0,95,0.00,,,0.00,oem by Ross Wheeler,2013-04-01 09:10:00,
2013-04-01 05:15:00,43.7,42.0,29.68,SSW,212,5.0,0.0,95,0.00,,,0.00,oem by Ross Wheeler,2013-04-01 09:15:00,
2013-04-01 05:25:00,43.7,42.0,29.68,SSW,206,1.0,0.0,95,0.00,,,0.00,oem by Ross Wheeler,2013-04-01 09:25:00,
2013-04-01 05:31:00,43.7,42.0,29.68,SW,223,3.0,0.0,95,0.00,,,0.00,oem by Ross Wheeler,2013-04-01 09:31:00,
2013-04-01 05:40:00,43.7,43.0,29.68,SSE,168,0.0,0.0,96,0.00,,,0.00,oem by Ross Wheeler,2013-04-01 09:40:00,
2013-04-01 05:45:00,43.7,43.0,29.68,SW,216,2.0,0.0,96,0.00,,,0.00,oem by Ross Wheeler,2013-04-01 09:45:00,
2013-04-01 05:55:00,43.5,43.0,29.68,WNW,298,2.0,0.0,96,0.00,,,0.00,oem by Ross Wheeler,2013-04-01 09:55:00,
2013-04-01 06:00:00,43.5,43.0,29.69,WSW,237,0.0,0.0,96,0.00,,,0.00,oem by Ross Wheeler,2013-04-01 10:00:00,
2013-04-01 06:10:00,43.4,42.0,29.69,SW,215,2.0,0.0,95,0.00,,,0.00,oem by Ross Wheeler,2013-04-01 10:10:00,
2013-04-01 06:15:00,43.3,42.0,29.69,SW,215,1.0,0.0,95,0.00,,,0.00,oem by Ross Wheeler,2013-04-01 10:15:00,
2013-04-01 06:25:00,43.0,42.0,29.69,WSW,247,1.0,0.0,95,0.00,,,0.00,oem by Ross Wheeler,2013-04-01 10:25:00,
2013-04-01 06:30:00,42.8,42.0,29.68,SW,227,1.0,0.0,95,0.00,,,0.00,oem by Ross Wheeler,2013-04-01 10:30:00,
2013-04-01 06:40:00,42.5,42.0,29.68,SSW,213,1.0,0.0,96,0.00,,,0.00,oem by Ross Wheeler,2013-04-01 10:40:00,
2013-04-01 06:45:00,42.5,42.0,29.68,SSW,213,1.0,0.0,96,0.00,,,0.00,oem by Ross Wheeler,2013-04-01 10:45:00,
2013-04-01 06:55:00,42.3,41.0,29.68,SW,220,0.0,0.0,96,0.00,,,0.00,oem by Ross Wheeler,2013-04-01 10:55:00,
2013-04-01 07:00:00,42.3,41.0,29.68,SW,220,1.0,0.0,96,0.00,,,0.00,oem by Ross Wheeler,2013-04-01 11:00:00,
2013-04-01 07:10:00,42.3,41.0,29.68,SW,220,0.0,0.0,96,0.00,,,0.00,oem by Ross Wheeler,2013-04-01 11:10:00,
2013-04-01 07:15:00,42.4,41.0,29.68,SW,222,1.0,0.0,96,0.00,,,0.00,oem by Ross Wheeler,2013-04-01 11:15:00,
2013-04-01 07:25:00,42.5,42.0,29.68,SSW,213,6.0,0.0,96,0.00,,,0.00,oem by Ross Wheeler,2013-04-01 11:25:00,
2013-04-01 07:30:00,42.7,42.0,29.68,SSW,212,5.0,0.0,96,0.00,,,0.00,oem by Ross Wheeler,2013-04-01 11:30:00,
2013-04-01 07:40:00,43.3,42.0,29.68,SW,215,3.0,0.0,96,0.00,,,0.00,oem by Ross Wheeler,2013-04-01 11:40:00,
2013-04-01 07:45:00,43.7,43.0,29.68,SW,215,0.0,0.0,96,0.00,,,0.00,oem by Ross Wheeler,2013-04-01 11:45:00,
2013-04-01 07:55:00,44.3,43.0,29.68,West,277,3.0,0.0,96,0.00,,,0.00,oem by Ross Wheeler,2013-04-01 11:55:00,
2013-04-01 08:00:00,44.6,44.0,29.68,West,265,1.0,0.0,96,0.00,,,0.00,oem by Ross Wheeler,2013-04-01 12:00:00,
2013-04-01 08:10:00,44.9,44.0,29.68,West,263,2.0,0.0,96,0.00,,,0.00,oem by Ross Wheeler,2013-04-01 12:10:00,
2013-04-01 08:15:00,45.2,44.0,29.68,WSW,246,6.0,0.0,96,0.00,,,0.00,oem by Ross Wheeler,2013-04-01 12:15:00,
2013-04-01 08:25:00,45.9,45.0,29.68,SW,220,2.0,0.0,95,0.00,,,0.00,oem by Ross Wheeler,2013-04-01 12:25:00,
2013-04-01 08:30:00,46.2,45.0,29.68,SW,215,1.0,0.0,94,0.00,,,0.00,oem by Ross Wheeler,2013-04-01 12:30:00,
2013-04-01 08:40:00,46.5,45.0,29.68,SW,230,3.0,0.0,93,0.00,,,0.00,oem by Ross Wheeler,2013-04-01 12:40:00,
2013-04-01 08:45:00,46.8,45.0,29.68,SW,234,3.0,0.0,93,0.00,,,0.00,oem by Ross Wheeler,2013-04-01 12:45:00,
2013-04-01 08:55:00,47.2,45.0,29.68,SW,217,4.0,0.0,92,0.00,,,0.00,oem by Ross Wheeler,2013-04-01 12:55:00,
2013-04-01 09:00:00,47.5,45.0,29.68,SSW,206,2.0,0.0,91,0.00,,,0.00,oem by Ross Wheeler,2013-04-01 13:00:00,
2013-04-01 09:10:00,48.0,45.0,29.68,SSW,202,2.0,0.0,88,0.00,,,0.00,oem by Ross Wheeler,2013-04-01 13:10:00,
2013-04-01 09:15:00,48.0,45.0,29.67,SW,216,3.0,0.0,88,0.00,,,0.00,oem by Ross Wheeler,2013-04-01 13:15:00,
2013-04-01 09:25:00,49.0,46.0,29.67,WSW,247,3.0,0.0,88,0.00,,,0.00,oem by Ross Wheeler,2013-04-01 13:25:00,
2013-04-01 09:30:00,49.1,45.0,29.67,SW,226,7.0,0.0,86,0.00,,,0.00,oem by Ross Wheeler,2013-04-01 13:30:00,
2013-04-01 09:40:00,49.4,45.0,29.67,WSW,243,1.0,0.0,85,0.00,,,0.00,oem by Ross Wheeler,2013-04-01 13:40:00,
2013-04-01 09:45:00,49.4,45.0,29.67,SSW,199,3.0,0.0,85,0.00,,,0.00,oem by Ross Wheeler,2013-04-01 13:45:00,
2013-04-01 09:55:00,50.2,46.0,29.67,SW,219,2.0,0.0,84,0.00,,,0.00,oem by Ross Wheeler,2013-04-01 13:55:00,
2013-04-01 10:00:00,50.6,46.0,29.66,WSW,254,0.0,0.0,83,0.00,,,0.00,oem by Ross Wheeler,2013-04-01 14:00:00,
2013-04-01 10:10:00,51.8,46.0,29.66,WNW,302,4.0,0.0,80,0.00,,,0.00,oem by Ross Wheeler,2013-04-01 14:10:00,
2013-04-01 10:15:00,52.5,45.0,29.66,SW,220,3.0,0.0,75,0.00,,,0.00,oem by Ross Wheeler,2013-04-01 14:15:00,
2013-04-01 10:25:00,53.6,45.0,29.66,SSW,213,6.0,0.0,73,0.00,,,0.00,oem by Ross Wheeler,2013-04-01 14:25:00,
2013-04-01 10:30:00,53.9,45.0,29.67,SSW,212,6.0,0.0,72,0.00,,,0.00,oem by Ross Wheeler,2013-04-01 14:30:00,
2013-04-01 10:40:00,54.3,45.0,29.67,West,279,8.0,0.0,72,0.00,,,0.00,oem by Ross Wheeler,2013-04-01 14:40:00,
2013-04-01 10:45:00,54.6,45.0,29.67,NW,306,6.0,0.0,71,0.00,,,0.00,oem by Ross Wheeler,2013-04-01 14:45:00,
2013-04-01 10:55:00,55.5,46.0,29.67,West,268,3.0,0.0,71,0.00,,,0.00,oem by Ross Wheeler,2013-04-01 14:55:00,
2013-04-01 11:00:00,55.8,45.0,29.66,West,260,10.0,0.0,68,0.00,,,0.00,oem by Ross Wheeler,2013-04-01 15:00:00,
2013-04-01 11:10:00,55.9,45.0,29.66,SSW,206,8.0,0.0,68,0.00,,,0.00,oem by Ross Wheeler,2013-04-01 15:10:00,
2013-04-01 11:15:00,56.4,45.0,29.65,West,265,3.0,0.0,66,0.00,,,0.00,oem by Ross Wheeler,2013-04-01 15:15:00,
2013-04-01 11:25:00,57.8,45.0,29.65,WNW,285,6.0,0.0,62,0.00,,,0.00,oem by Ross Wheeler,2013-04-01 15:25:00,
2013-04-01 11:30:00,57.9,44.0,29.65,WSW,246,11.0,0.0,61,0.00,,,0.00,oem by Ross Wheeler,2013-04-01 15:30:00,
2013-04-01 11:40:00,58.4,45.0,29.65,WNW,288,4.0,0.0,61,0.00,,,0.00,oem by Ross Wheeler,2013-04-01 15:40:00,
2013-04-01 11:45:00,58.8,44.0,29.64,WNW,298,12.0,0.0,58,0.00,,,0.00,oem by Ross Wheeler,2013-04-01 15:45:00,
2013-04-01 11:55:00,59.4,43.0,29.64,WSW,244,7.0,0.0,56,0.00,,,0.00,oem by Ross Wheeler,2013-04-01 15:55:00,
2013-04-01 12:00:00,60.2,43.0,29.64,SW,236,10.0,0.0,53,0.00,,,0.00,oem by Ross Wheeler,2013-04-01 16:00:00,
2013-04-01 12:10:00,61.0,43.0,29.64,WNW,301,4.0,0.0,51,0.00,,,0.00,oem by Ross Wheeler,2013-04-01 16:10:00,
2013-04-01 12:15:00,61.0,43.0,29.63,WNW,285,7.0,0.0,52,0.00,,,0.00,oem by Ross Wheeler,2013-04-01 16:15:00,
2013-04-01 12:25:00,61.6,43.0,29.63,NW,319,10.0,0.0,50,0.00,,,0.00,oem by Ross Wheeler,2013-04-01 16:25:00,
2013-04-01 12:30:00,62.3,42.0,29.62,WSW,257,10.0,0.0,47,0.00,,,0.00,oem by Ross Wheeler,2013-04-01 16:30:00,
2013-04-01 12:40:00,62.1,41.0,29.62,WNW,295,7.0,0.0,46,0.00,,,0.00,oem by Ross Wheeler,2013-04-01 16:40:00,
2013-04-01 12:45:00,61.6,42.0,29.62,WNW,288,5.0,0.0,49,0.00,,,0.00,oem by Ross Wheeler,2013-04-01 16:45:00,
2013-04-01 12:55:00,61.9,41.0,29.62,WNW,284,10.0,0.0,46,0.00,,,0.00,oem by Ross Wheeler,2013-04-01 16:55:00,
2013-04-01 13:00:00,61.6,41.0,29.61,West,279,12.0,0.0,47,0.00,,,0.00,oem by Ross Wheeler,2013-04-01 17:00:00,
2013-04-01 13:10:00,62.1,42.0,29.61,WSW,248,9.0,0.0,48,0.00,,,0.00,oem by Ross Wheeler,2013-04-01 17:10:00,
2013-04-01 13:15:00,63.4,40.0,29.61,NW,320,9.0,0.0,43,0.00,,,0.00,oem by Ross Wheeler,2013-04-01 17:15:00,
2013-04-01 13:25:00,64.7,38.0,29.61,WSW,250,10.0,0.0,37,0.00,,,0.00,oem by Ross Wheeler,2013-04-01 17:25:00,
2013-04-01 13:30:00,64.4,39.0,29.61,NW,311,5.0,0.0,39,0.00,,,0.00,oem by Ross Wheeler,2013-04-01 17:30:00,
2013-04-01 13:40:00,62.7,38.0,29.61,WNW,292,6.0,0.0,41,0.00,,,0.00,oem by Ross Wheeler,2013-04-01 17:40:00,
2013-04-01 13:45:00,62.7,40.0,29.60,NW,308,7.0,0.0,44,0.00,,,0.00,oem by Ross Wheeler,2013-04-01 17:45:00,
2013-04-01 13:55:00,63.4,40.0,29.60,WNW,288,6.0,0.0,42,0.00,,,0.00,oem by Ross Wheeler,2013-04-01 17:55:00,
2013-04-01 14:00:00,63.7,40.0,29.60,WSW,241,7.0,0.0,42,0.00,,,0.00,oem by Ross Wheeler,2013-04-01 18:00:00,
2013-04-01 14:10:00,62.7,39.0,29.60,West,260,8.0,0.0,42,0.00,,,0.00,oem by Ross Wheeler,2013-04-01 18:10:00,
2013-04-01 14:15:00,63.5,39.0,29.59,WNW,282,10.0,0.0,41,0.00,,,0.00,oem by Ross Wheeler,2013-04-01 18:15:00,
2013-04-01 14:25:00,62.7,39.0,29.59,SSW,205,13.0,0.0,42,0.00,,,0.00,oem by Ross Wheeler,2013-04-01 18:25:00,
2013-04-01 14:30:00,61.9,41.0,29.59,NW,308,11.0,0.0,46,0.00,,,0.00,oem by Ross Wheeler,2013-04-01 18:30:00,
2013-04-01 14:40:00,62.6,41.0,29.59,West,270,11.0,0.0,45,0.00,,,0.00,oem by Ross Wheeler,2013-04-01 18:40:00,
2013-04-01 14:45:00,62.4,40.0,29.59,SW,231,14.0,0.0,44,0.00,,,0.00,oem by Ross Wheeler,2013-04-01 18:45:00,
2013-04-01 14:55:00,63.1,40.0,29.59,WSW,250,12.0,0.0,43,0.00,,,0.00,oem by Ross Wheeler,2013-04-01 18:55:00,
2013-04-01 15:00:00,62.4,39.0,29.59,West,278,6.0,0.0,42,0.00,,,0.00,oem by Ross Wheeler,2013-04-01 19:00:00,
2013-04-01 15:10:00,61.8,40.0,29.59,NW,311,7.0,0.0,45,0.00,,,0.00,oem by Ross Wheeler,2013-04-01 19:10:00,
2013-04-01 15:15:00,61.6,39.0,29.60,West,277,11.0,0.0,43,0.00,,,0.00,oem by Ross Wheeler,2013-04-01 19:15:00,
2013-04-01 15:25:00,61.2,38.0,29.60,WNW,296,11.0,0.0,43,0.00,,,0.00,oem by Ross Wheeler,2013-04-01 19:25:00,
2013-04-01 15:30:00,61.2,40.0,29.60,WSW,241,9.0,0.0,45,0.00,,,0.00,oem by Ross Wheeler,2013-04-01 19:30:00,
2013-04-01 15:40:00,59.7,38.0,29.60,WNW,288,5.0,0.0,45,0.00,,,0.00,oem by Ross Wheeler,2013-04-01 19:40:00,
2013-04-01 15:45:00,59.7,39.0,29.61,SSW,198,8.0,0.0,46,0.00,,,0.00,oem by Ross Wheeler,2013-04-01 19:45:00,
2013-04-01 15:55:00,59.1,38.0,29.61,NNW,335,6.0,0.0,46,0.00,,,0.00,oem by Ross Wheeler,2013-04-01 19:55:00,
2013-04-01 16:00:00,58.5,38.0,29.62,NW,320,7.0,0.0,47,0.00,,,0.00,oem by Ross Wheeler,2013-04-01 20:00:00,
2013-04-01 16:10:00,55.9,37.0,29.62,North,3,2.0,0.0,50,0.00,,,0.00,oem by Ross Wheeler,2013-04-01 20:10:00,
2013-04-01 16:15:00,55.4,37.0,29.65,West,278,10.0,0.0,50,0.00,,,0.00,oem by Ross Wheeler,2013-04-01 20:15:00,
2013-04-01 16:25:00,54.6,38.0,29.65,NNW,332,6.0,0.0,53,0.00,,,0.00,oem by Ross Wheeler,2013-04-01 20:25:00,
2013-04-01 16:30:00,54.0,37.0,29.65,West,275,8.0,0.0,52,0.00,,,0.00,oem by Ross Wheeler,2013-04-01 20:30:00,
2013-04-01 16:40:00,53.1,36.0,29.65,WNW,303,14.0,0.0,52,0.00,,,0.00,oem by Ross Wheeler,2013-04-01 20:40:00,
2013-04-01 16:45:00,52.4,35.0,29.67,WNW,294,6.0,0.0,52,0.00,,,0.00,oem by Ross Wheeler,2013-04-01 20:45:00,
2013-04-01 16:55:00,50.9,36.0,29.67,West,263,5.0,0.0,57,0.00,,,0.00,oem by Ross Wheeler,2013-04-01 20:55:00,
2013-04-01 17:00:00,50.2,38.0,29.68,West,277,8.0,0.0,64,0.00,,,0.00,oem by Ross Wheeler,2013-04-01 21:00:00,
2013-04-01 17:10:00,47.7,39.0,29.68,NW,323,3.0,0.0,72,0.00,,,0.00,oem by Ross Wheeler,2013-04-01 21:10:00,
2013-04-01 17:15:00,46.6,39.0,29.69,NNW,333,2.0,0.0,75,0.00,,,0.00,oem by Ross Wheeler,2013-04-01 21:15:00,
2013-04-01 17:25:00,45.7,39.0,29.69,NNW,342,5.0,0.0,78,0.00,,,0.00,oem by Ross Wheeler,2013-04-01 21:25:00,
2013-04-01 17:30:00,45.6,39.0,29.70,NW,326,5.0,0.0,78,0.00,,,0.00,oem by Ross Wheeler,2013-04-01 21:30:00,
2013-04-01 17:40:00,45.9,39.0,29.70,NW,323,1.0,0.0,77,0.00,,,0.00,oem by Ross Wheeler,2013-04-01 21:40:00,
2013-04-01 17:45:00,46.0,38.0,29.71,NW,316,5.0,0.0,74,0.00,,,0.00,oem by Ross Wheeler,2013-04-01 21:45:00,
2013-04-01 17:55:00,46.3,38.0,29.71,NW,319,3.0,0.0,72,0.00,,,0.00,oem by Ross Wheeler,2013-04-01 21:55:00,
2013-04-01 18:00:00,46.5,38.0,29.69,NW,319,2.0,0.0,71,0.00,,,0.00,oem by Ross Wheeler,2013-04-01 22:00:00,
2013-04-01 18:10:00,46.2,37.0,29.69,NW,319,0.0,0.0,71,0.00,,,0.00,oem by Ross Wheeler,2013-04-01 22:10:00,
2013-04-01 18:15:00,46.2,37.0,29.70,NW,319,2.0,0.0,71,0.00,,,0.00,oem by Ross Wheeler,2013-04-01 22:15:00,
2013-04-01 18:25:00,46.2,38.0,29.70,NW,319,2.0,0.0,72,0.00,,,0.00,oem by Ross Wheeler,2013-04-01 22:25:00,
2013-04-01 18:30:00,46.5,37.0,29.70,NW,319,1.0,0.0,70,0.00,,,0.00,oem by Ross Wheeler,2013-04-01 22:30:00,
2013-04-01 18:40:00,46.8,37.0,29.70,WNW,301,2.0,0.0,68,0.00,,,0.00,oem by Ross Wheeler,2013-04-01 22:40:00,
2013-04-01 18:45:00,46.8,36.0,29.71,NW,305,1.0,0.0,66,0.00,,,0.00,oem by Ross Wheeler,2013-04-01 22:45:00,
2013-04-01 18:55:00,46.6,36.0,29.71,NW,305,0.0,0.0,67,0.00,,,0.00,oem by Ross Wheeler,2013-04-01 22:55:00,
2013-04-01 19:00:00,46.6,36.0,29.72,NW,305,0.0,0.0,68,0.00,,,0.00,oem by Ross Wheeler,2013-04-01 23:00:00,
2013-04-01 19:10:00,46.2,36.0,29.72,NW,305,0.0,0.0,68,0.00,,,0.00,oem by Ross Wheeler,2013-04-01 23:10:00,
2013-04-01 19:15:00,46.0,36.0,29.72,NW,305,0.0,0.0,69,0.00,,,0.00,oem by Ross Wheeler,2013-04-01 23:15:00,
2013-04-01 19:25:00,45.4,36.0,29.72,NW,305,0.0,0.0,69,0.00,,,0.00,oem by Ross Wheeler,2013-04-01 23:25:00,
2013-04-01 19:30:00,45.3,36.0,29.72,NW,305,0.0,0.0,70,0.00,,,0.00,oem by Ross Wheeler,2013-04-01 23:30:00,
2013-04-01 19:40:00,45.2,36.0,29.72,West,281,2.0,0.0,70,0.00,,,0.00,oem by Ross Wheeler,2013-04-01 23:40:00,
2013-04-01 19:45:00,45.3,33.0,29.73,WNW,303,6.0,0.0,62,0.00,,,0.00,oem by Ross Wheeler,2013-04-01 23:45:00,
2013-04-01 19:55:00,46.2,25.0,29.73,West,281,5.0,0.0,44,0.00,,,0.00,oem by Ross Wheeler,2013-04-01 23:55:00,
2013-04-01 20:00:00,46.0,26.0,29.74,West,274,2.0,0.0,45,0.00,,,0.00,oem by Ross Wheeler,2013-04-02 00:00:00,
2013-04-01 20:10:00,46.0,24.0,29.74,NW,305,6.0,0.0,43,0.00,,,0.00,oem by Ross Wheeler,2013-04-02 00:10:00,
2013-04-01 20:15:00,46.2,22.0,29.75,WSW,258,2.0,0.0,39,0.00,,,0.00,oem by Ross Wheeler,2013-04-02 00:15:00,
2013-04-01 20:25:00,45.9,21.0,29.75,WNW,289,5.0,0.0,38,0.00,,,0.00,oem by Ross Wheeler,2013-04-02 00:25:00,
2013-04-01 20:30:00,45.9,22.0,29.76,WNW,287,1.0,0.0,39,0.00,,,0.00,oem by Ross Wheeler,2013-04-02 00:30:00,
2013-04-01 20:40:00,45.7,20.0,29.76,West,264,4.0,0.0,36,0.00,,,0.00,oem by Ross Wheeler,2013-04-02 00:40:00,
2013-04-01 20:45:00,45.6,21.0,29.77,NNW,337,7.0,0.0,38,0.00,,,0.00,oem by Ross Wheeler,2013-04-02 00:45:00,
2013-04-01 20:55:00,44.9,21.0,29.77,NNW,332,3.0,0.0,39,0.00,,,0.00,oem by Ross Wheeler,2013-04-02 00:55:00,
2013-04-01 21:05:00,44.3,22.0,29.79,NNW,336,5.0,0.0,41,0.00,,,0.00,oem by Ross Wheeler,2013-04-02 01:05:00,
2013-04-01 21:10:00,43.8,22.0,29.79,NNW,342,7.0,0.0,43,0.00,,,0.00,oem by Ross Wheeler,2013-04-02 01:10:00,
2013-04-01 21:15:00,43.5,22.0,29.81,NW,311,5.0,0.0,43,0.00,,,0.00,oem by Ross Wheeler,2013-04-02 01:15:00,
2013-04-01 21:25:00,42.5,20.0,29.81,NNW,330,10.0,0.0,40,0.00,,,0.00,oem by Ross Wheeler,2013-04-02 01:25:00,
2013-04-01 21:30:00,42.3,19.0,29.82,NW,305,8.0,0.0,40,0.00,,,0.00,oem by Ross Wheeler,2013-04-02 01:30:00,
2013-04-01 21:40:00,42.0,20.0,29.82,NNW,340,5.0,0.0,41,0.00,,,0.00,oem by Ross Wheeler,2013-04-02 01:40:00,
2013-04-01 21:45:00,41.7,19.0,29.83,NNW,343,6.0,0.0,40,0.00,,,0.00,oem by Ross Wheeler,2013-04-02 01:45:00,
2013-04-01 21:55:00,41.1,15.0,29.83,NNW,343,5.0,0.0,35,0.00,,,0.00,oem by Ross Wheeler,2013-04-02 01:55:00,
2013-04-01 22:00:00,40.8,15.0,29.84,NW,316,6.0,0.0,35,0.00,,,0.00,oem by Ross Wheeler,2013-04-02 02:00:00,
2013-04-01 22:10:00,40.3,15.0,29.84,NNW,340,6.0,0.0,35,0.00,,,0.00,oem by Ross Wheeler,2013-04-02 02:10:00,
2013-04-01 22:15:00,40.3,14.0,29.85,NNW,332,3.0,0.0,34,0.00,,,0.00,oem by Ross Wheeler,2013-04-02 02:15:00,
2013-04-01 22:25:00,39.8,13.0,29.85,NW,313,5.0,0.0,34,0.00,,,0.00,oem by Ross Wheeler,2013-04-02 02:25:00,
2013-04-01 22:30:00,39.7,15.0,29.85,NNW,330,8.0,0.0,36,0.00,,,0.00,oem by Ross Wheeler,2013-04-02 02:30:00,
2013-04-01 22:40:00,39.4,12.0,29.85,NNW,339,5.0,0.0,33,0.00,,,0.00,oem by Ross Wheeler,2013-04-02 02:40:00,
2013-04-01 22:45:00,39.1,12.0,29.86,NNW,336,5.0,0.0,33,0.00,,,0.00,oem by Ross Wheeler,2013-04-02 02:45:00,
2013-04-01 22:55:00,38.8,12.0,29.86,NW,320,2.0,0.0,34,0.00,,,0.00,oem by Ross Wheeler,2013-04-02 02:55:00,
2013-04-01 23:00:00,38.7,11.0,29.87,NW,306,6.0,0.0,32,0.00,,,0.00,oem by Ross Wheeler,2013-04-02 03:00:00,
2013-04-01 23:10:00,38.5,12.0,29.87,NW,326,2.0,0.0,34,0.00,,,0.00,oem by Ross Wheeler,2013-04-02 03:10:00,
2013-04-01 23:15:00,38.3,13.0,29.87,NNW,337,4.0,0.0,35,0.00,,,0.00,oem by Ross Wheeler,2013-04-02 03:15:00,
2013-04-01 23:25:00,38.1,13.0,29.87,NW,318,2.0,0.0,35,0.00,,,0.00,oem by Ross Wheeler,2013-04-02 03:25:00,
2013-04-01 23:30:00,38.0,12.0,29.88,West,277,10.0,0.0,35,0.00,,,0.00,oem by Ross Wheeler,2013-04-02 03:30:00,
2013-04-01 23:40:00,37.7,14.0,29.88,NW,309,3.0,0.0,38,0.00,,,0.00,oem by Ross Wheeler,2013-04-02 03:40:00,
2013-04-01 23:45:00,37.5,14.0,29.88,NNW,335,2.0,0.0,39,0.00,,,0.00,oem by Ross Wheeler,2013-04-02 03:45:00,
2013-04-01 23:55:00,37.4,13.0,29.88,NW,323,5.0,0.0,37,0.00,,,0.00,oem by Ross Wheeler,2013-04-02 03:55:00,